When you browse on this site, cookies collect data to enhance your experience and personalize the content and advertising you see.
Visit our Privacy Policy to learn more. By continuing to use the site, you agree to this use of cookies and data.
  • Em Portugal
  • Lista de países
  • Para 7 dias
  • Temperatura da água
  • Mapa do tempo
  • Widgets de tempo
  • user-avatar
    Iniciar Sessão

    Previsão horária em Lleida

    Hoje, 24 Agosto, Sábado

    Tempo Temperatura Precipitação Vento Pressão Humidade
    00:00 +25°C° 0 mm 1 m/s 749 mmHg 59%
    01:00 +24°C° 0 mm 1 m/s 749 mmHg 60%
    02:00 +24°C° 0 mm 1 m/s 749 mmHg 61%
    03:00 +24°C° 0 mm 1 m/s 749 mmHg 62%
    04:00 +22°C° 0 mm 0 m/s 749 mmHg 62%
    05:00 +22°C° 0 mm 0 m/s 749 mmHg 62%
    06:00 +22°C° 0 mm 0 m/s 749 mmHg 62%
    07:00 +26°C° 0 mm 1 m/s 749 mmHg 56%
    08:00 +28°C° 0 mm 1 m/s 749 mmHg 49%
    09:00 +30°C° 0 mm 1 m/s 749 mmHg 43%
    10:00 +31°C° 0 mm 1 m/s 749 mmHg 39%
    11:00 +33°C° 0 mm 1 m/s 749 mmHg 35%
    12:00 +35°C° 0 mm 2 m/s 748 mmHg 31%
    13:00 +36°C° 0 mm 2 m/s 748 mmHg 29%
    14:00 +36°C° 0 mm 2 m/s 748 mmHg 27%
    15:00 +36°C° 0 mm 3 m/s 748 mmHg 25%
    16:00 +35°C° 0 mm 3 m/s 747 mmHg 29%
    17:00 +34°C° 0 mm 4 m/s 747 mmHg 32%
    18:00 +33°C° 0 mm 5 m/s 747 mmHg 35%
    19:00 +30°C° 0 mm 4 m/s 747 mmHg 41%
    20:00 +29°C° 0 mm 3 m/s 748 mmHg 47%
    21:00 +27°C° 0 mm 3 m/s 748 mmHg 53%
    22:00 +26°C° 0 mm 2 m/s 748 mmHg 55%
    23:00 +26°C° 0 mm 2 m/s 748 mmHg 58%

    Amanhã, 25 Agosto, Domingo

    Tempo Temperatura Precipitação Vento Pressão Humidade
    00:00 +25°C° 0 mm 2 m/s 748 mmHg 61%
    01:00 +25°C° 0 mm 1 m/s 748 mmHg 61%
    02:00 +24°C° 0 mm 1 m/s 748 mmHg 62%
    03:00 +24°C° 0 mm 1 m/s 748 mmHg 63%
    04:00 +24°C° 0 mm 1 m/s 748 mmHg 62%
    05:00 +24°C° 0 mm 1 m/s 747 mmHg 61%
    06:00 +24°C° 0 mm 1 m/s 747 mmHg 61%
    07:00 +26°C° 0 mm 1 m/s 748 mmHg 53%
    08:00 +29°C° 0 mm 1 m/s 748 mmHg 45%
    09:00 +31°C° 0 mm 1 m/s 748 mmHg 37%
    10:00 +32°C° 0 mm 2 m/s 748 mmHg 33%
    11:00 +35°C° 0 mm 2 m/s 747 mmHg 28%
    12:00 +37°C° 0 mm 2 m/s 747 mmHg 24%
    13:00 +37°C° 0 mm 3 m/s 747 mmHg 24%
    14:00 +37°C° 0 mm 4 m/s 747 mmHg 23%
    15:00 +37°C° 0 mm 4 m/s 746 mmHg 23%
    16:00 +35°C° 0 mm 5 m/s 746 mmHg 28%
    17:00 +34°C° 0 mm 5 m/s 746 mmHg 32%
    18:00 +32°C° 0 mm 5 m/s 746 mmHg 36%
    19:00 +29°C° 0 mm 4 m/s 747 mmHg 43%
    20:00 +28°C° 0 mm 3 m/s 747 mmHg 49%
    21:00 +26°C° 0 mm 2 m/s 748 mmHg 56%
    22:00 +26°C° 0 mm 2 m/s 747 mmHg 57%
    23:00 +25°C° 0 mm 2 m/s 747 mmHg 59%

    Depois de amanhã, 26 Agosto, Segunda-feira

    Tempo Temperatura Precipitação Vento Pressão Humidade
    00:00 +25°C° 0 mm 2 m/s 747 mmHg 60%
    01:00 +24°C° 0 mm 2 m/s 747 mmHg 60%
    02:00 +24°C° 0 mm 1 m/s 747 mmHg 60%
    03:00 +24°C° 0 mm 1 m/s 747 mmHg 60%
    04:00 +24°C° 0 mm 1 m/s 747 mmHg 60%
    05:00 +23°C° 0 mm 1 m/s 747 mmHg 60%
    06:00 +23°C° 0 mm 1 m/s 747 mmHg 60%
    07:00 +25°C° 0 mm 1 m/s 747 mmHg 53%
    08:00 +27°C° 0 mm 1 m/s 747 mmHg 45%
    09:00 +30°C° 0 mm 1 m/s 747 mmHg 37%
    10:00 +31°C° 0 mm 2 m/s 747 mmHg 33%
    11:00 +33°C° 0 mm 3 m/s 747 mmHg 29%
    12:00 +35°C° 0 mm 4 m/s 747 mmHg 24%
    13:00 +35°C° 0 mm 4 m/s 746 mmHg 25%
    14:00 +35°C° 0 mm 5 m/s 746 mmHg 26%
    15:00 +35°C° 0 mm 6 m/s 746 mmHg 27%
    16:00 +33°C° 0 mm 5 m/s 745 mmHg 32%
    17:00 +31°C° 0 mm 3 m/s 745 mmHg 37%
    18:00 +29°C° 0 mm 2 m/s 745 mmHg 42%
    19:00 +28°C° 0 mm 2 m/s 745 mmHg 45%
    20:00 +27°C° 0 mm 2 m/s 745 mmHg 48%
    21:00 +27°C° 0 mm 1 m/s 746 mmHg 50%
    22:00 +26°C° 0 mm 2 m/s 746 mmHg 53%
    23:00 +26°C° 0 mm 2 m/s 746 mmHg 55%

    27 Agosto, Terça-feira

    Tempo Temperatura Precipitação Vento Pressão Humidade
    00:00 +25°C° 0 mm 3 m/s 746 mmHg 57%
    01:00 +25°C° 0 mm 2 m/s 746 mmHg 58%
    02:00 +25°C° 0 mm 2 m/s 746 mmHg 59%
    03:00 +25°C° 0 mm 1 m/s 745 mmHg 60%
    04:00 +25°C° 0.1 mm 1 m/s 746 mmHg 60%
    05:00 +25°C° 0.1 mm 1 m/s 746 mmHg 60%
    06:00 +25°C° 0.1 mm 1 m/s 746 mmHg 61%
    07:00 +26°C° 0.1 mm 1 m/s 746 mmHg 57%
    08:00 +26°C° 0.1 mm 1 m/s 747 mmHg 53%
    09:00 +27°C° 0.1 mm 1 m/s 747 mmHg 50%
    10:00 +28°C° 0.5 mm 2 m/s 747 mmHg 47%
    11:00 +29°C° 0.5 mm 2 m/s 747 mmHg 44%
    12:00 +30°C° 0.5 mm 3 m/s 747 mmHg 41%
    13:00 +30°C° 0.2 mm 3 m/s 747 mmHg 42%
    14:00 +30°C° 0.2 mm 3 m/s 746 mmHg 42%
    15:00 +30°C° 0.2 mm 3 m/s 746 mmHg 42%
    16:00 +29°C° 0.3 mm 3 m/s 746 mmHg 46%
    17:00 +28°C° 0.3 mm 3 m/s 746 mmHg 50%
    18:00 +27°C° 0.3 mm 3 m/s 747 mmHg 54%
    19:00 +26°C° 0.2 mm 2 m/s 747 mmHg 58%
    20:00 +25°C° 0.2 mm 1 m/s 747 mmHg 63%
    21:00 +24°C° 0.2 mm 1 m/s 747 mmHg 67%
    22:00 +23°C° 0 mm 1 m/s 747 mmHg 68%
    23:00 +21°C° 0 mm 0 m/s 747 mmHg 69%

    28 Agosto, Quarta-feira

    Tempo Temperatura Precipitação Vento Pressão Humidade
    00:00 +21°C° 0 mm 0 m/s 747 mmHg 70%
    01:00 +20°C° 0 mm 0 m/s 747 mmHg 72%
    02:00 +20°C° 0 mm 0 m/s 747 mmHg 73%
    03:00 +20°C° 0 mm 0 m/s 747 mmHg 74%
    04:00 +20°C° 0 mm 0 m/s 747 mmHg 74%
    05:00 +20°C° 0 mm 0 m/s 747 mmHg 73%
    06:00 +20°C° 0 mm 0 m/s 747 mmHg 73%
    07:00 +24°C° 0 mm 1 m/s 747 mmHg 65%
    08:00 +26°C° 0 mm 1 m/s 747 mmHg 58%
    09:00 +28°C° 0 mm 1 m/s 747 mmHg 50%
    10:00 +29°C° 0 mm 1 m/s 747 mmHg 46%
    11:00 +30°C° 0 mm 2 m/s 747 mmHg 41%
    12:00 +31°C° 0 mm 2 m/s 747 mmHg 36%
    13:00 +32°C° 0 mm 2 m/s 747 mmHg 34%
    14:00 +34°C° 0 mm 2 m/s 746 mmHg 33%
    15:00 +34°C° 0 mm 3 m/s 746 mmHg 31%
    16:00 +34°C° 0 mm 2 m/s 746 mmHg 34%
    17:00 +32°C° 0 mm 2 m/s 746 mmHg 36%
    18:00 +31°C° 0 mm 2 m/s 746 mmHg 39%
    19:00 +29°C° 0 mm 2 m/s 746 mmHg 46%
    20:00 +28°C° 0 mm 2 m/s 747 mmHg 54%
    21:00 +26°C° 0 mm 2 m/s 747 mmHg 61%
    22:00 +25°C° 0 mm 2 m/s 747 mmHg 62%
    23:00 +25°C° 0 mm 2 m/s 747 mmHg 64%

    29 Agosto, Quinta-feira

    Tempo Temperatura Precipitação Vento Pressão Humidade
    00:00 +25°C° 0 mm 1 m/s 747 mmHg 65%
    01:00 +24°C° 0 mm 1 m/s 747 mmHg 66%
    02:00 +24°C° 0 mm 1 m/s 747 mmHg 66%
    03:00 +24°C° 0 mm 1 m/s 747 mmHg 67%
    04:00 +24°C° 0 mm 1 m/s 747 mmHg 66%
    05:00 +24°C° 0 mm 1 m/s 747 mmHg 66%
    06:00 +24°C° 0 mm 1 m/s 747 mmHg 66%
    07:00 +26°C° 0 mm 1 m/s 747 mmHg 58%
    08:00 +28°C° 0 mm 1 m/s 747 mmHg 51%
    09:00 +30°C° 0 mm 1 m/s 747 mmHg 43%
    10:00 +32°C° 0 mm 1 m/s 747 mmHg 39%
    11:00 +34°C° 0 mm 2 m/s 747 mmHg 35%
    12:00 +35°C° 0 mm 2 m/s 747 mmHg 30%
    13:00 +36°C° 0 mm 2 m/s 747 mmHg 29%
    14:00 +37°C° 0 mm 2 m/s 746 mmHg 27%
    15:00 +37°C° 0 mm 3 m/s 746 mmHg 26%
    16:00 +36°C° 0 mm 3 m/s 746 mmHg 30%
    17:00 +34°C° 0 mm 4 m/s 746 mmHg 34%
    18:00 +33°C° 0 mm 4 m/s 746 mmHg 39%
    19:00 +30°C° 0 mm 4 m/s 746 mmHg 44%
    20:00 +29°C° 0 mm 3 m/s 747 mmHg 50%
    21:00 +27°C° 0 mm 2 m/s 747 mmHg 55%
    22:00 +27°C° 0 mm 2 m/s 747 mmHg 56%
    23:00 +26°C° 0 mm 2 m/s 747 mmHg 58%
    Mostrar mais